Retour au catalogue

GLOBALSTAR M044

ActifCommunicationsLEO
NORAD 25678·PAYLOAD·🇺🇸 United States

Lancé Apr 15, 1999 depuis Baikonur Cosmodrome

Loading…

Prochains Passages (prochaines 24 heures)

TLE

FraisSource: Space-Track

Époque: Sep 14, 2026, 10:32 UTC

1 25678U 99019C   26257.43898823 -.00000075  00000-0  12508-3 0  9995
2 25678  51.9949 261.0569 0005953 192.5506 333.8538 11.90266756225416

Suivez GLOBALSTAR M044 en temps réel avec AllMySat

Download on the App Store